Погода в Билибино

Россия / Чукотский автономный округ     68°03′25″N   166°27′04″E
темп.,
°C
ветер,
м/с
пор.,
м/с
влажн.,
%
обл.,
%
осадки,
мм/ч
давл.,
гПа
погр.,
м
21 апреля, ср
ср2100:00−15всв2289100 0.0 103210
03:00−16всв3288100 0.0 10339
06:00−15всв228898 0.0 103313
09:00−7в227687 0.0 103182
12:00−2вюв22740 0.0 1030148
15:000вюв22833 0.0 1029124
18:00−1вюв21835 0.0 102818
21:00−11в22875 0.0 102910
22 апреля, чт
чт2200:00−17всв22927 0.0 10319
03:00−19всв22955 0.0 10319
06:00−18всв22925 0.0 103111
09:00−8в22756 0.0 102889
12:00−3вюв12715 0.0 1025171
15:00−1вюв11795 0.0 1023169
18:00−1всв11835 0.0 102140
21:00−9всв229095 0.0 102210
23 апреля, пт
пт2300:00−12всв2294100 0.0 10239
03:00−14всв229396 0.0 10239
06:00−15всв219132 0.0 10239
09:00−8юв1171100 0.0 102192
12:00−4ююз116974 0.0 1020205
15:00−3з00818 0.0 1019229
18:00−2всв11855 0.0 1018143
21:00−10св32915 0.0 101810
24 апреля, сб
сб2400:00−14всв329570 0.0 101812
03:00−15всв3210080 0.0 101711
06:00−13всв2210086 0.0 101641
09:00−7всв228936 0.0 1014174
12:00−4всв2279100 0.0 1013269
15:00−2всв2275100 0.0 1011258
18:00−1всв2182100 0.0 101027
21:00−4св2287100 0.0 101012
25 апреля, вс
вс2500:00−6св2289100 0.0 101011
03:00−4всв1189100 0.0 100910
06:00−4всв118896 0.0 100923
09:00−1юз0079100 0.0 1008108
12:000зюз1093100 0.0 1007131
15:00−1зюз10100100 0.8 1007141
18:00−1юз11100100 2.6 1007130
21:00−3зюз1110098 0.7 100810